Flag for Niger Weather past 2 weeks in Niamey, Niger

Now
77 °F

Clear.


Feels Like: 78 °F
Forecast: 73 / 91 °F
Wind: 1 mph from North

Location: Niamey-Aero

Current Time: Aug 3, 2015 at 12:32:12 AM

Latest Report: Aug 3, 2015 at 12:00 AM


Visibility: 10 mi

Pressure: 29.95 "Hg

Humidity: 94%

Dew point: 75 °F

Location of NiameyLocation

Historic Weather in Niamey — Graph

°F

Niamey temperature yesterday

Maximum temperature yesterday: 82 °F (at 12:00 AM)
Minimum temperature yesterday: 72 °F (at 4:00 AM)
Average temperature yesterday: 77 °F

Past Weeks' High & Low Weather Summary

 TemperatureHumidityPressure
High99 °F (Jul 19, 2:00 PM)100% (Jul 20, 12:00 AM)30.01 "Hg (Jul 20, 12:00 AM)
Low72 °F (Jul 20, 12:00 AM)32% (Jul 24, 5:00 PM)29.71 "Hg (Jul 20, 5:00 AM)
Average84 °F67%29.89 "Hg
* Reported Jul 18 11:00 PM — Aug 2 11:00 PM, Niamey, Weather by CustomWeather, © 2015

Note: Actual official high and low records may vary slightly from our data, if they occured in-between our weather recording intervals... More about our weather records

Advertising

Niamey weather history for previous 24 hours

 ConditionsComfort  
Time TempWeatherWind HumidityBarometerVisibility
11:00 PM
Sun, Aug 2
77 °FClear.1 mph94%29.92 "Hg10 mi
10:00 PM77 °FPassing clouds.5 mph94%29.89 "HgN/A
9:00 PM79 °FPassing clouds.5 mph89%29.86 "HgN/A
8:00 PM79 °FPassing clouds.3 mph89%29.86 "HgN/A
7:00 PM81 °FPassing clouds.3 mph79%29.86 "HgN/A
6:00 PM81 °FPassing clouds.7 mph79%29.86 "HgN/A
5:00 PM81 °FPassing clouds.3 mph74%29.86 "HgN/A
4:00 PM81 °FPassing clouds.6 mph79%29.89 "HgN/A
3:00 PM79 °FPassing clouds.2 mph79%29.92 "HgN/A
2:00 PM79 °FPassing clouds.3 mph79%29.95 "HgN/A
1:00 PM77 °FPassing clouds.2 mph83%29.92 "HgN/A
12:00 PM75 °FPassing clouds.6 mph89%29.92 "HgN/A
11:00 AM75 °FPassing clouds.7 mph89%29.95 "HgN/A
10:00 AM73 °FLight rain. Partly sunny.10 mph100%30.01 "HgN/A
9:00 AM73 °FLight rain. Passing clouds.3 mph94%29.95 "HgN/A
8:00 AM72 °FLight rain. Passing clouds.5 mph100%29.92 "HgN/A
7:00 AM72 °FThunderstorms. Passing clouds.3 mph100%29.92 "HgN/A
6:00 AM72 °FThunderstorms. Passing clouds.12 mph100%29.95 "Hg2 mi
5:00 AM75 °FThunderstorms. Passing clouds.26 mph94%29.95 "Hg2 mi
4:00 AM72 °FStrong thunderstorms. Partly cloudy.28 mph100%29.95 "Hg1 mi
3:00 AM77 °FThunderstorms. Partly cloudy.9 mph79%29.86 "HgN/A
2:00 AM79 °FThunderstorms. Passing clouds.7 mph79%29.86 "HgN/A
1:00 AM79 °FThunderstorms. Passing clouds.16 mph84%29.89 "HgN/A
12:00 AM82 °FThunderstorms. Passing clouds.7 mph70%29.89 "HgN/A
Weather by CustomWeather, © 2015

See weather overviewHow to use our weather pages